| time (UTC) | temp F | wind direction | speed MPH | gust MPH | rain 1hr in | rain 24hr in | rain mn in | humidity % | barometer mb |
| 20260904040007 | 80 | 90 | 2.0 | 6.0 | 0.00 | 0.00 | 0.00 | 80 | 1010.6 |
| 20260904034505 | 80 | 103 | 1.0 | 9.0 | 0.00 | 0.00 | 0.00 | 79 | 1010.6 |
| 20260904033005 | 81 | 108 | 2.0 | 9.0 | 0.00 | 0.00 | 0.00 | 79 | 1010.6 |
| 20260904031505 | 81 | 60 | 3.0 | 9.0 | 0.00 | 0.00 | 0.00 | 78 | 1010.4 |
| 20260904030007 | 81 | 69 | 2.0 | 7.0 | 0.00 | 0.00 | 0.00 | 76 | 1010.3 |
| 20260904024504 | 82 | 101 | 2.0 | 8.0 | 0.00 | 0.00 | 0.00 | 75 | 1010.2 |
| 20260904023005 | 82 | 108 | 4.0 | 13.0 | 0.00 | 0.00 | 0.00 | 74 | 1009.9 |
| 20260904021505 | 83 | 86 | 3.0 | 9.0 | 0.00 | 0.00 | 0.00 | 72 | 1009.9 |
| 20260904020007 | 83 | 111 | 1.0 | 7.0 | 0.00 | 0.00 | 0.00 | 71 | 1009.7 |
| 20260904014505 | 84 | 96 | 2.0 | 7.0 | 0.00 | 0.00 | 0.00 | 70 | 1009.5 |
| 20260904013005 | 84 | 96 | 2.0 | 7.0 | 0.00 | 0.00 | 0.00 | 69 | 1009.1 |
| 20260904011511 | 85 | 63 | 3.0 | 9.0 | 0.00 | 0.00 | 0.00 | 68 | 1009.0 |
| 20260904010010 | 85 | 150 | 3.0 | 9.0 | 0.00 | 0.00 | 0.00 | 67 | 1009.0 |
| 20260904004505 | 86 | 67 | 3.0 | 9.0 | 0.00 | 0.00 | 0.00 | 66 | 1009.1 |
| 20260904003007 | 86 | 35 | 3.0 | 11.0 | 0.00 | 0.00 | 0.00 | 66 | 1009.1 |
| 20260904001504 | 87 | 94 | 4.0 | 14.0 | 0.00 | 0.00 | 0.00 | 65 | 1009.0 |
| 20260904000009 | 88 | 64 | 5.0 | 13.0 | 0.00 | 0.00 | 0.00 | 63 | 1009.0 |
| 20260903234505 | 89 | 52 | 3.0 | 9.0 | 0.00 | 0.00 | 0.00 | 64 | 1008.8 |
| 20260903233004 | 89 | 75 | 4.0 | 10.0 | 0.00 | 0.00 | 0.00 | 64 | 1008.7 |
| 20260903231504 | 91 | 48 | 5.0 | 12.0 | 0.00 | 0.00 | 0.00 | 62 | 1008.5 |
| 20260903230010 | 93 | 70 | 5.0 | 14.0 | 0.00 | 0.00 | 0.00 | 55 | 1008.4 |
| 20260903224510 | 95 | 88 | 6.0 | 13.0 | 0.00 | 0.00 | 0.00 | 50 | 1008.0 |
| 20260903223004 | 94 | 123 | 4.0 | 10.0 | 0.00 | 0.00 | 0.00 | 51 | 1008.0 |
| 20260903221505 | 95 | 146 | 4.0 | 11.0 | 0.00 | 0.00 | 0.00 | 51 | 1007.9 |
| 20260903220018 | 95 | 57 | 6.0 | 16.0 | 0.00 | 0.00 | 0.00 | 50 | 1007.8 |
| 20260903214507 | 98 | 81 | 4.0 | 10.0 | 0.00 | 0.00 | 0.00 | 46 | 1007.9 |
| 20260903213004 | 98 | 48 | 2.0 | 9.0 | 0.00 | 0.00 | 0.00 | 47 | 1008.0 |
| 20260903211504 | 98 | 98 | 3.0 | 10.0 | 0.00 | 0.00 | 0.00 | 47 | 1008.1 |
| 20260903210006 | 100 | 90 | 4.0 | 11.0 | 0.00 | 0.00 | 0.00 | 45 | 1008.2 |
| 20260903204510 | 99 | 70 | 4.0 | 11.0 | 0.00 | 0.00 | 0.00 | 45 | 1008.5 |
| 20260903203004 | 101 | 131 | 5.0 | 10.0 | 0.00 | 0.00 | 0.00 | 43 | 1008.7 |
| 20260903201506 | 101 | 107 | 5.0 | 11.0 | 0.00 | 0.00 | 0.00 | 44 | 1008.8 |
| 20260903200006 | 100 | 68 | 3.0 | 9.0 | 0.00 | 0.00 | 0.00 | 45 | 1008.8 |
| 20260903194505 | 99 | 123 | 2.0 | 9.0 | 0.00 | 0.00 | 0.00 | 46 | 1009.1 |
| 20260903193004 | 99 | 41 | 2.0 | 10.0 | 0.00 | 0.00 | 0.00 | 46 | 1009.3 |
| 20260903191507 | 99 | 38 | 2.0 | 10.0 | 0.00 | 0.00 | 0.00 | 46 | 1009.5 |
| 20260903190007 | 98 | 78 | 4.0 | 10.0 | 0.00 | 0.00 | 0.00 | 47 | 1009.8 |
| 20260903184504 | 98 | 61 | 4.0 | 10.0 | 0.00 | 0.00 | 0.00 | 48 | 1010.0 |
| 20260903183004 | 97 | 236 | 1.0 | 5.0 | 0.00 | 0.00 | 0.00 | 46 | 1010.3 |
| 20260903181504 | 97 | 181 | 3.0 | 10.0 | 0.00 | 0.00 | 0.00 | 47 | 1010.6 |
| 20260903180007 | 95 | 271 | 3.0 | 10.0 | 0.00 | 0.00 | 0.00 | 50 | 1010.6 |
| 20260903174504 | 96 | 191 | 4.0 | 10.0 | 0.00 | 0.00 | 0.00 | 48 | 1010.7 |
| 20260903173015 | 96 | 111 | 2.0 | 8.0 | 0.00 | 0.00 | 0.00 | 51 | 1010.9 |
| 20260903171507 | 95 | 209 | 2.0 | 10.0 | 0.00 | 0.00 | 0.00 | 55 | 1011.0 |
| 20260903170006 | 92 | 263 | 1.0 | 13.0 | 0.00 | 0.00 | 0.00 | 59 | 1011.2 |
| 20260903164504 | 92 | 196 | 3.0 | 14.0 | 0.00 | 0.00 | 0.00 | 58 | 1011.1 |
| 20260903163005 | 92 | 146 | 3.0 | 8.0 | 0.00 | 0.00 | 0.00 | 58 | 1011.3 |
| 20260903161504 | 92 | 242 | 2.0 | 9.0 | 0.00 | 0.00 | 0.00 | 61 | 1011.3 |
| 20260903160010 | 89 | 261 | 5.0 | 13.0 | 0.00 | 0.00 | 0.00 | 63 | 1011.2 |
| 20260903154504 | 88 | 234 | 4.0 | 13.0 | 0.00 | 0.00 | 0.00 | 67 | 1011.2 |
| 20260903153004 | 88 | 241 | 5.0 | 12.0 | 0.00 | 0.00 | 0.00 | 67 | 1011.2 |
| 20260903151504 | 87 | 259 | 3.0 | 11.0 | 0.00 | 0.00 | 0.00 | 71 | 1011.3 |
| 20260903150010 | 86 | 250 | 5.0 | 10.0 | 0.00 | 0.00 | 0.00 | 72 | 1011.2 |
| 20260903144504 | 85 | 254 | 4.0 | 13.0 | 0.00 | 0.00 | 0.00 | 75 | 1011.2 |
| 20260903143005 | 84 | 225 | 4.0 | 13.0 | 0.00 | 0.00 | 0.00 | 76 | 1011.3 |
| 20260903141505 | 83 | 227 | 6.0 | 11.0 | 0.00 | 0.00 | 0.00 | 79 | 1011.3 |
| 20260903140006 | 82 | 244 | 4.0 | 10.0 | 0.00 | 0.00 | 0.00 | 81 | 1011.4 |
| 20260903134507 | 82 | 243 | 4.0 | 8.0 | 0.00 | 0.00 | 0.00 | 82 | 1011.4 |
| 20260903133003 | 81 | 244 | 3.0 | 10.0 | 0.00 | 0.00 | 0.00 | 83 | 1011.4 |
| 20260903131504 | 81 | 235 | 3.0 | 7.0 | 0.00 | 0.00 | 0.00 | 84 | 1011.4 |
| 20260903130005 | 80 | 258 | 1.0 | 7.0 | 0.00 | 0.00 | 0.00 | 85 | 1011.4 |
| 20260903124503 | 80 | 256 | 2.0 | 8.0 | 0.00 | 0.00 | 0.00 | 86 | 1011.2 |
| 20260903123005 | 79 | 243 | 2.0 | 8.0 | 0.00 | 0.00 | 0.00 | 86 | 1011.1 |
| 20260903121503 | 79 | 231 | 1.0 | 5.0 | 0.00 | 0.00 | 0.00 | 87 | 1011.1 |
| 20260903120006 | 79 | 209 | 2.0 | 8.0 | 0.00 | 0.00 | 0.00 | 87 | 1010.9 |
| 20260903114503 | 79 | 225 | 1.0 | 6.0 | 0.00 | 0.00 | 0.00 | 88 | 1011.0 |
| 20260903113003 | 79 | 221 | 0.0 | 4.0 | 0.00 | 0.00 | 0.00 | 88 | 1010.8 |
| 20260903111503 | 79 | 232 | 1.0 | 4.0 | 0.00 | 0.00 | 0.00 | 88 | 1010.8 |
| 20260903110005 | 79 | 219 | 0.0 | 6.0 | 0.00 | 0.00 | 0.00 | 88 | 1010.8 |
| 20260903104504 | 79 | 171 | 0.0 | 5.0 | 0.00 | 0.00 | 0.00 | 88 | 1010.7 |
| 20260903103005 | 79 | 155 | 0.0 | 4.0 | 0.00 | 0.00 | 0.00 | 88 | 1010.6 |
| 20260903101506 | 79 | 274 | 1.0 | 3.0 | 0.00 | 0.00 | 0.00 | 87 | 1010.7 |
| 20260903100005 | 79 | 170 | 0.0 | 3.0 | 0.00 | 0.00 | 0.00 | 87 | 1010.6 |
| 20260903094502 | 79 | 292 | 0.0 | 4.0 | 0.00 | 0.00 | 0.00 | 87 | 1010.7 |
| 20260903093004 | 79 | 213 | 0.0 | 2.0 | 0.00 | 0.00 | 0.00 | 87 | 1010.9 |
| 20260903091502 | 79 | 148 | 1.0 | 7.0 | 0.00 | 0.00 | 0.00 | 87 | 1010.9 |
| 20260903090005 | 80 | 195 | 0.0 | 2.0 | 0.00 | 0.00 | 0.00 | 86 | 1010.9 |
| 20260903084504 | 80 | 209 | 1.0 | 4.0 | 0.00 | 0.00 | 0.00 | 86 | 1010.9 |
| 20260903083001 | 80 | 78 | 1.0 | 8.0 | 0.00 | 0.00 | 0.00 | 85 | 1011.0 |
| 20260903081508 | 80 | 53 | 1.0 | 6.0 | 0.00 | 0.00 | 0.00 | 84 | 1010.9 |
| 20260903080006 | 80 | 246 | 2.0 | 5.0 | 0.00 | 0.00 | 0.00 | 84 | 1011.0 |
| 20260903074502 | 80 | 101 | 1.0 | 4.0 | 0.00 | 0.00 | 0.00 | 83 | 1011.0 |
| 20260903073002 | 80 | 116 | 0.0 | 4.0 | 0.00 | 0.00 | 0.00 | 82 | 1011.1 |
| 20260903071503 | 81 | 189 | 0.0 | 4.0 | 0.00 | 0.00 | 0.00 | 81 | 1011.1 |
| 20260903070005 | 81 | 128 | 1.0 | 5.0 | 0.00 | 0.00 | 0.00 | 80 | 1011.2 |
| 20260903064502 | 81 | 117 | 1.0 | 5.0 | 0.00 | 0.00 | 0.00 | 78 | 1011.3 |
| 20260903063001 | 82 | 104 | 2.0 | 8.0 | 0.00 | 0.00 | 0.00 | 77 | 1011.4 |
| 20260903061503 | 82 | 23 | 1.0 | 9.0 | 0.00 | 0.00 | 0.00 | 75 | 1011.4 |
| 20260903060007 | 82 | 175 | 1.0 | 10.0 | 0.00 | 0.00 | 0.00 | 74 | 1011.3 |
| 20260903054505 | 83 | 96 | 0.0 | 5.0 | 0.00 | 0.00 | 0.00 | 72 | 1011.3 |
| 20260903053009 | 83 | 107 | 2.0 | 7.0 | 0.00 | 0.00 | 0.00 | 69 | 1011.1 |
| 20260903051504 | 83 | 47 | 4.0 | 12.0 | 0.00 | 0.00 | 0.00 | 67 | 1011.1 |
| 20260903050011 | 83 | 113 | 4.0 | 12.0 | 0.00 | 0.00 | 0.00 | 67 | 1011.1 |